Weather in Goslar

Germany     51°54′37″N   10°25′38″E
temp.,
°C
wind,
m/s
gust,
m/s
humid.,
%
clouds,
%
prec.,
mm/h
press.,
hPa
HPBL,
m
15 may, sat
sat1523:00+8ssw22881 0.0 100818
02:00+7ssw22891 0.0 100718
05:00+6ssw22904 0.0 100621
08:00+10sw498099 0.0 1006549
11:00+12sw567493 0.3 10061277
14:00+12sw687178 0.7 10051084
17:00+12sw597699 0.6 1004912
20:00+10sw488498 0.8 1004538
16 may, sun
sun1623:00+8ssw359095 0.1 1004103
02:00+8sw398894 0.1 1004604
05:00+5ssw349396 0.0 100467
08:00+10sw598217 0.1 1004648
11:00+13wsw57656 0.2 10031403
14:00+14sw576697 1.4 10021742
17:00+13sw5777100 1.7 1002884
20:00+10sw4987100 3.9 1002404
17 may, mon
mon1723:00+7ssw349255 0.0 100379
02:00+6ssw339276 0.0 100350
05:00+6ssw339286 0.0 100346
08:00+8ssw3793100 0.2 1003364
11:00+11sw5880100 0.2 10031010
14:00+12sw71081100 1.1 10041486
17:00+10sw61187100 0.4 10041141
20:00+10sw6138440 0.4 1004862
18 may, tue
tue1823:00+10sw6128763 0.1 1005733
02:00+9sw51191100 0.1 1005491
05:00+8wsw51091100 0.0 1007561
08:00+9wsw4888100 0.1 1008812
11:00+10wsw688778 0.4 1010847
14:00+12wsw688090 1.1 10111251
17:00+12w7108165 1.1 10121201
20:00+10w5118797 2.3 1013563
19 may, wed
wed1923:00+6sw489433 0.1 1015174
02:00+5sw47949 0.1 1016116
05:00+5sw4119289 0.1 1015259
08:00+7sw3891100 0.8 1015971
11:00+7sw2892100 0.2 1014654
14:00+9sw4888100 0.3 1014879
17:00+11wsw688292 0.4 1014932
20:00+10w5991100 1.9 1015473